Погода в Симферополе

Погода в Симферополе : погода сейчас, прогноз погоды и архив. Всё, что Вы хотите узнать о погоде в Симферополе!

Хотите узнать прогноз погоды в Симферополе? Тогда Вам сюда: Погода в Симферополе

Поиск расширенной информации на нашем сайте:

Другие новости

Новости СМИ2

Главная страница сайта

Новости сайта

02.10.2013

Напоминаем, что на нашем новом сайте вы можете получить высокодетализированные прогнозы погоды по пунктам России, СНГ и мира (включающие важные для авиации метеовеличины, такие как направление и скорость ветра, видимость, явления погоды, количество и форма облачности, нижняя и верхняя граница облачности), а также ознакомиться с разнообразными материалами по авиационной метеорологии и подборкой полезных ссылок на эту тему.

Сайт Метеоцентр.Азия посвящён разработке технологий оптимизации авиаметеорологического обслуживания, включая проектирование и перспективное создание нескольких автоматизированных авиаметеорологических систем:
- система выпуска высокодетальных прогностических карт явлений погоды для нижнего воздушного пространства по России и ближнему зарубежью;
- система верификации прогнозов TAF (выпускаемых синоптиками официальных АМСГ РФ и ближнего зарубежья) и AUTOTAF (выпускаемых сайтом Метеоцентр.Азия) - выявление ошибок, онлайн-сопоставление с фактической погодой METAR, автоматическое внесение коррективов в прогнозы при резком отклонении фактической погоды от прогноза, подсчёт оправдываемости прогнозов по элементам и в целом;
- система обработки, анализа и отображения авиаметеорологической информации для применения провайдерами метеорологической информации.


Погода в Симферополе - сегодня

Время (UTC), дата Ветер
(°,м/с) 
Видим.   Явления Облачность Т
(°С)
Тd
(°С)
f(%) Тe
(°С)
Pmin
(гПа)
dP
(гПа)
Po
(мм)
O2
(г/м3)
Тmin Tmax R s Состояние
почвы
18 21.05.17 340 (С) 4200 м  слаб. ливневой дождь  10/8 1380 м кучево-дожд., средняя 
[Cb calv|Ac und]
+11.4 +10.5 94 +15  1007.9  0.6  740  284    +14.5     
21 21.05.17 тихо ()   10 км  {ливн. осадки}  9/3 1000 м средняя 
[Sc|Ac trans]
+10.4 +9.8 96 +12  1007.9  -0.1  740  285           
00 22.05.17 200 (Ю) 10 км  {ливн. осадки}  10/10 750 м 
[Sc]
+10.3 +10 98 +11  1007.8  -0.1  740  285           
03 22.05.17 180 (Ю) 10 км    8/8 800 м 
[Sc]
+10.3 +9.7 96 +11  1008  0.2  740  285  +9.8       
06 22.05.17 210 (ЮЗ) 10 км    8/5 360 м верхняя 
[St|Ci sp]
+13.1 +10.3 83 +15  1008.5  0.7  740  283  +9.8       
12 22.05.17 270 (З) 7{10}  10 км  гроза без осадков  10/8 1140 м кучево-дожд., верхняя 
[Cb cap|Ci ing]
+14.9 +9.9 72 +15  1008.9  0.4  741  281           
15 22.05.17 140 (ЮВ) 3{12}  10 км  гроза, ливневой дождь [макс. диам. градин 5 мм]  10/8 1000 м кучево-дожд., средняя 
[Cb cap|Ac und]
+10.3 +9.2 93 +10  1010.9  1.6  742  286      21     
18 22.05.17 170 (Ю) 10 км  {гроза, ливн. осадки}  9/3 1000 м кучево-дожд., средняя 
[Cb calv|Ac trans]
+9.8 +8.7 93 +9  1011.5  0.6  742  287    +17.7  24     
21 22.05.17 120 (ЮВ) 10 км    8/3 1000 м средняя 
[Sc|Ac trans]
+8.7 +7.9 95 +9  1012.5  0.8  743  289           
00 23.05.17 120 (ЮВ) 10 км    8/4 800 м средняя 
[Sc|Ac trans]
+9.1 +8 93 +9  1012.6  0.2  743  288           
03 23.05.17 180 (Ю) 10 км    10/6 800 м средняя 
[Sc|Ac trans]
+9.6 +8.5 93 +10  1013.2  0.6  744  288  +8.1       
06 23.05.17 070 (В) 4400 м  дымка  10/10 100 м 
[St]
+11.9 +11.4 97 +15  1014.6  1.6  745  285  +8.1         
09 23.05.17 030 (СВ) 10 км  в посл. час ливневой дождь  10/10 1500 м кучево-дожд. 
[Cb calv]
+14 +12.4 90 +19  1015.3  0.8  745  283           
12 23.05.17 040 (СВ) 7-10{13}  10 км  в посл. час ливневой дождь  10/10 1500 м кучево-дожд. 
[Cb calv]
+15.9 +12.6 81 +20  1015.7  0.5  746  281           
15 23.05.17 060 (СВ) 6{12}  10 км    10/1 1000 м средняя 
[Sc|Ac trans]
+14.5 +10.3 76 +16  1016.4  0.6  746  284         
18 23.05.17 060 (СВ) 10 км    4/0 средняя 
[Ac trans]
+11.1 +9.4 89 +11  1017.7  747  288    +16.6     
21 23.05.17 100 (В) 10 км    5/0 средняя 
[Ac trans]
+9 +8.1 94 +8  1018.5  0.6  747  290           
00 24.05.17 050 (СВ) 10 км    4/0 средняя 
[Ac trans]
+9.2 +7.8 91 +10  1018.9  0.4  748  290           
06 24.05.17 060 (СВ) 10 км    3/3 1500 м 
[Sc]
+15.9 +10.7 71 +17  1018.5  0.4  748  283  +6.9         
09 24.05.17 040 (СВ) 6{10}  10 км    6/6 1200 м 
[Cu hum]
+18.6 +10.2 58 +20  1018.1  -0.2  748  280           
12 24.05.17 090 (В) 5{10}  10 км    8/8 1200 м кучево-дожд. 
[Cb calv]
+18.7 +10.8 60 +21  1017.8  -0.3  747  280           
15 24.05.17 200 (Ю) 4{10}  10 км  слаб. ливневой дождь  9/9 1200 м кучево-дожд. 
[Cb calv]
+14.6 +11.6 82 +17  1018.6  0.5  748  284      0.0     
18 24.05.17 160 (Ю) 10 км  {ливн. осадки}  3/3 1300 м 
[Sc]
+12.9 +11.3 90 +17  1018.4  -0.3  748  285    +20.7  0.1     
21 24.05.17 тихо ()   10 км    ясно 
+10.2 +9.4 95 +11  1018.8  0.1  748  289           
00 25.05.17 110 (В) 10 км    ясно 
+9.6 +8.7 94 +9  1018.4  -0.4  747  289           
Время (UTC), дата Ветер
(°,м/с) 
Видим.   Явления Облачность Т
(°С)
Тd
(°С)
f(%) Тe
(°С)
Pmin
(гПа)
dP
(гПа)
Po
(мм)
O2
(г/м3)
Тmin Tmax R s Состояние
почвы

Для получения пояснительной информации подведите курсор к названию столбца.

ПОГОДА в Симферополе - архив

Всё, что Вы хотите узнать о погоде в Симферополе - удобно и подробно!

Выберите нужную дату (начиная с 1 января 2015* года) и нажмите кнопку "Найти".
Будут отображены архивные сводки погоды по пункту Симферополь, начиная с указанной даты.


Отображать данные в формате CSV (для использования в таблицах Excel)


Внимание! Наш архив погоды предназначен исключительно для личного некоммерческого использования в познавательных целях. Если Вам необходимы официальные справки о состоянии погоды (для производственных, юридических, коммерческих и т.п. целей), обращайтесь в органы Росгидромета.

*Примечание: данная дата относится к архиву по метеостанциям СССР (Россия, СНГ, Балтия).
Архив по метеостанциям Зарубежной Европы и Азии (кроме Китая) хранится 10 дней, по другим регионам земного шара (Китай, Африка, Америка, Австралия, Океания) - 1 день.

Симферополь - район местоположения метеостанции


Название, широта, долгота, высота метеостанции:
Симферополь 44.7°ш. 34.1°д. 181 м над ур. моря [Российская Федерация]

Дополнительная информация

В oтличие oт бoльшинства пoгoдных сайтoв мы публикуем пoдрoбную метеoинфoрмацию в детальнoм прoфессиoнальнoм фoрмате.

Характеристики температуры и влажнoсти вoздуха измеряются на высoте 2 м в тени вдали oт зданий и деревьев.
Скoрoсть ветра измеряется на высoте 10 м (на урoвне рoста челoвека скoрoсть ветра ниже в 1.5-2 раза). Если метеoстанция нахoдится в гoрoде или в лесу, тo скoрoсть ветра занижена на 2-4 м/с пo сравнению с oткрытым местoм. Скoрoсть ветра над акватoриями крупных рек и oзёр, а также на вершинах хoлмoв на 2-5 м/с выше, чем в oбычных услoвиях.
Атмoсфернoе давление в разных тoчках местнoсти мoжет значительнo oтличаться oт давления на метеoстанции, в зависимoсти oт услoвий рельефа (при пoдъёме на 10 м давление пoнижается примернo на 1 мм рт.ст.).